Overview Statistics Trail Chart Weather Telemetry Raw packets
 

This is the latest recevied weather packets stored in our database for station/object KQ4PPF. If no packets are shown the sender has not sent any weather packets the latest 10 day(s).

<< 10 11 12 13 14 15 16 >>
Time Temp. Humidity Pressure Rain* Wind** Luminosity Snow
1788538635 34.44° C 61% 1017.3 hPa 0 mm - 597 W/m² -
1788538330 33.89° C 64% 1017.2 hPa 0 mm - 586 W/m² -
1788538026 34.44° C 60% 1017.1 hPa 0 mm - 577 W/m² -
1788537721 34.44° C 61% 1017.2 hPa 0 mm - 568 W/m² -
1788537421 33.89° C 62% 1017.3 hPa 0 mm - 544 W/m² -
1788537115 33.33° C 64% 1017.3 hPa 0 mm - 583 W/m² -
1788536814 33.89° C 62% 1017.2 hPa 0 mm - 608 W/m² -
1788536514 33.33° C 69% 1017.3 hPa 0 mm - 603 W/m² -
1788536209 35° C 60% 1017.1 hPa 0 mm - 570 W/m² -
1788535904 33.33° C 68% 1017.3 hPa 0 mm - 582 W/m² -
1788535601 33.89° C 64% 1017.4 hPa 0 mm - 622 W/m² -
1788535295 32.22° C 65% 1017.3 hPa 0 mm - 604 W/m² -
1788534991 33.33° C 64% 1017.4 hPa 0 mm - 625 W/m² -
1788534689 33.33° C 64% 1017.3 hPa 0 mm - 595 W/m² -
1788534385 32.78° C 65% 1017.4 hPa 0 mm - 470 W/m² -
1788534080 32.78° C 67% 1017.2 hPa 0 mm - 79 W/m² -
1788533779 32.22° C 67% 1017 hPa 0 mm - 74 W/m² -
1788533474 31.67° C 68% 1017.3 hPa 0 mm - 581 W/m² -
1788533170 32.78° C 65% 1017.2 hPa 0 mm - 554 W/m² -
1788532866 32.22° C 70% 1017.2 hPa 0 mm - 511 W/m² -
1788532561 31.67° C 68% 1017.2 hPa 0 mm - 453 W/m² -
1788532257 31.67° C 69% 1017.2 hPa 0 mm - 513 W/m² -
1788531954 31.67° C 70% 1017.3 hPa 0 mm - 529 W/m² -
1788531648 30.56° C 69% 1017.2 hPa 0 mm - 516 W/m² -
1788531344 31.11° C 70% 1017 hPa 0 mm - 515 W/m² -

* Rain latest hour (hover to see other rain measurements)
** Current wind speed in m/s (hover to see current wind gust speed)